Overview Statistics Trail Chart Weather Telemetry Raw packets
 

This is the latest recevied weather packets stored in our database for station/object WW6Q. If no packets are shown the sender has not sent any weather packets the latest 10 day(s).

<< 62 63 64 65 66 67 68 >>
Time Temp. Humidity Pressure Rain* Wind** Luminosity Snow
1788193374 25° C 75% 1017.6 hPa 0 mm - 209 W/m² -
1788193068 25° C 77% 1017.5 hPa 0 mm - 218 W/m² -
1788192778 24.44° C 79% 1017.7 hPa 0 mm - 266 W/m² -
1788192464 24.44° C 79% 1017.3 hPa 0 mm - 245 W/m² -
1788192159 23.89° C 80% 1017.5 hPa 0 mm - 207 W/m² -
1788191859 23.89° C 79% 1017.5 hPa 0 mm - 176 W/m² -
1788191554 23.89° C 80% 1017.7 hPa 0 mm - 168 W/m² -
1788191250 23.89° C 82% 1017.7 hPa 0 mm - 131 W/m² -
1788190946 23.89° C 79% 1017.7 hPa 0 mm - 133 W/m² -
1788190645 23.89° C 82% 1017.5 hPa 0 mm - 155 W/m² -
1788190341 23.89° C 83% 1017.3 hPa 0 mm - 170 W/m² -
1788190036 23.89° C 85% 1017.6 hPa 0 mm - 182 W/m² -
1788189732 23.33° C 85% 1017.3 hPa 0 mm - 187 W/m² -
1788189432 23.33° C 87% 1017.2 hPa 0 mm - 166 W/m² -
1788189126 23.33° C 85% 1017.2 hPa 0 mm - 95 W/m² -
1788188822 23.33° C 86% 1017.2 hPa 0 mm - 66 W/m² -
1788188517 23.33° C 86% 1017.2 hPa 0 mm - 64 W/m² -
1788188216 23.33° C 85% 1017.1 hPa 0 mm - 68 W/m² -
1788187913 23.89° C 85% 1017.3 hPa 0 mm - 93 W/m² -
1788187608 23.89° C 87% 1017.1 hPa 0 mm - 130 W/m² -
1788187304 23.89° C 85% 1017.3 hPa 0 mm - 154 W/m² -
1788187003 23.89° C 84% 1017 hPa 0 mm - 151 W/m² -
1788186699 23.89° C 86% 1017 hPa 0 mm - 149 W/m² -
1788186395 23.33° C 86% 1017 hPa 0 mm - 189 W/m² -
1788186096 23.33° C 88% 1017.2 hPa 0 mm - 216 W/m² -

* Rain latest hour (hover to see other rain measurements)
** Current wind speed in m/s (hover to see current wind gust speed)